Other Public Products
Issued by NWS Grand Forks, ND

Home | Current Version | Previous Version | Graphics & Text | Print | Product List | Glossary On
Versions: 1 2 3 4 5 6 7 8 9 10 11 12 13 14 15 16 17 18 19 20 21 22 23 24 25 26 27 28 29 30 31 32 33 34 35 36 37 38 39 40 41 42 43 44 45 46 47 48 49 50
000
FPUS83 KFGF 281510
OPUFGF
PRAIRIE TO PINES WEATHER ROUNDUP
NATIONAL WEATHER SERVICE EASTERN NORTH DAKOTA/GRAND FORKS ND
1000 AM CDT FRI AUG 28 2015

 **SATELLITE DATA USED TO AUGMENT SKY COVER AT AUTOMATED STATIONS**
 *****  WEATHER ACROSS EASTERN NORTH DAKOTA  *****

CITY           SKY/WX    TMP DP  RH WIND       PRES   REMARKS
GRAND FORKS    PTSUNNY   69  64  84 S10       29.87R
GRAND FORKS AF MOSUNNY   69  65  85 S8        29.87R
GRAND CITY NWS   N/A     68 N/A N/A S9          N/A
BUXTON         NOT AVBL
DEVILS LAKE    MOSUNNY   72  59  64 SW9       29.85R
FARGO          SUNNY     71  64  78 S12       29.92R
WAHPETON ARPT  PTSUNNY   70  63  78 S9        29.95R
$$

 *****  WEATHER ACROSS CENTRAL AND WESTERN NORTH DAKOTA  *****

CITY           SKY/WX    TMP DP  RH WIND       PRES   REMARKS
JAMESTOWN      SUNNY     69  64  84 S6        29.91R
BISMARCK       SUNNY     70  63  78 SW7       29.91S
MINOT          MOSUNNY   71  60  68 SW9       29.85R HAZE
MINOT AFB      MOSUNNY   73  64  74 W9        29.83S
GARRISON         N/A     68  61  78 SW7       29.88S
WILLISTON      MOSUNNY   65  60  84 S6        29.91R
DICKINSON      SUNNY     71  54  54 W10       29.93S
HETTINGER      SUNNY     70  58  65 W5        29.98S
$$

 *****  OTHER OBSERVATIONS NORTHEAST NORTH DAKOTA  *****

CITY           SKY/WX    TMP DP  RH WIND       PRES   REMARKS
WALHALLA       FAIR      70  70 100 MISG      29.81F
LANGDON        FAIR      68  64  88 S6        29.87S
CAVALIER       LGT RAIN  64  64 100 S8        29.83F
GRAFTON        FAIR      66  66 100 SE7       29.88R
CANDO          NOT AVBL
FORT TOTTEN      N/A     71  63  76 S8        29.95S
ROLLA          FAIR      68  63  83 W9        29.85R
RUGBY          FAIR      68  64  88 SW9       29.84S
 ***** THE ABOVE OBSERVATIONS ARE NON NWS ARE NOT QUALITY
        CONTROLLED AND MAY MIS-REPORT RAIN FOR SNOW...
$$

 *****  OTHER OBSERVATIONS SOUTHEAST NORTH DAKOTA *****

CITY           SKY/WX    TMP DP  RH WIND       PRES   REMARKS
COOPERSTOWN    NOT AVBL
VALLEY CITY    FAIR      70  70 100 S12       29.91S
OAKES            N/A     64  63  94 S10       29.94S FOG
GWINNER        PTSUNNY   70  70 100 SW12      29.94S
SHEYENNE NWR     N/A     69  65  86 S7        29.95S
BUFFALO        NOT AVBL
WYNDMERE         N/A     72  66  83 S9          N/A
 ***** THE ABOVE OBSERVATIONS ARE NON NWS ARE NOT QUALITY
       CONTROLLED AND MAY MIS-REPORT RAIN FOR SNOW...
$$

  *****  WEATHER ACROSS NORTHERN MINNESOTA  *****

CITY           SKY/WX    TMP DP  RH WIND       PRES   REMARKS
FLAG ISLAND    CLOUDY    66  64  94 S8        29.80F
WARROAD        TSTM      64  61  88 SW6       29.89F
ROSEAU           N/A     66  61  82 CALM      29.88F
HALLOCK        LGT RAIN  64  63  94 S13       29.84S
THF RVR FALLS  PTSUNNY  N/A N/A N/A SW8       29.92R
HALSTAD        NOT AVBL
FOSSTON        MOSUNNY   70  64  83 S14       29.94R
BAUDETTE       CLOUDY    66  65  96 W3        29.89S
WASKISH        CLOUDY    70  68  94 SW6       29.91R
CROOKSTON      MOSUNNY   70  66  88 S14       29.90R
$$
  *****  WEATHER ACROSS CENTRAL AND WEST MINNESOTA  *****

CITY           SKY/WX    TMP DP  RH WIND       PRES   REMARKS
BEMIDJI        MOSUNNY   68  65  90 S6        29.94R
PARK RAPIDS    PTSUNNY   70  64  81 S12       29.97R
WADENA         SUNNY     72  64  78 S8        29.97S
DETROIT LAKES  CLOUDY    68  63  83 S14       29.96S
MOORHEAD       CLOUDY    66  64  94 S8        29.94R
FERGUS FALLS   PTSUNNY   68  66  94 S10       29.95S
ELBOW LAKE     CLOUDY    65  64  95 S13       29.97R
MORRIS MN      CLOUDY    68  64  88 S8        29.96F
STAPLES        SUNNY     70  63  78 S12       29.98S
WHEATON        PTSUNNY   66  63  88 S8        29.96F
$$
  *****  WEATHER ELSEWHERE ACROSS MINNESOTA  *****

CITY           SKY/WX    TMP DP  RH WIND       PRES   REMARKS
DULUTH         CLOUDY    64  59  83 SW12      29.98R
INTRNTL FALLS  CLOUDY    66  63  90 SW7       29.90R
ELY            CLOUDY    63  61  94 SW3       29.96R
CLOQUET        CLOUDY    64  59  82 SW9       29.98S
BRAINERD       SUNNY     69  63  81 SW12      29.98F
HIBBING        CLOUDY    65  62  90 SW5       29.96R
ALEXANDRIA     MOSUNNY   69  64  84 S6        29.99F
SAINT CLOUD    MOSUNNY   68  63  84 S9        30.00S
MINNEAPOLIS    CLOUDY    69  63  81 S9G18     30.02S
$$

  *****  WEATHER ACROSS SOUTH DAKOTA  *****

CITY           SKY/WX    TMP DP  RH WIND       PRES   REMARKS
SIOUX FALLS    LGT RAIN  66  64  93 NE14      29.93R FOG
BROOKINGS      PTSUNNY   68  61  77 E12       29.97S
WATERTOWN      CLOUDY    68  63  84 E7        29.96S
HURON          PTSUNNY   70  65  84 E5        29.94R
SISSETON         N/A     69  65  86 S6        29.94S
ABERDEEN       PTSUNNY   69  65  86 S9        29.94S
MITCHELL       CLOUDY    68  65  90 NE10      29.94S
PIERRE         CLOUDY    69  66  90 S5        29.95S
MOBRIDGE       CLOUDY    68  68 100 S5        29.93S FOG
RAPID CITY     SUNNY     68  59  73 W7        30.04S
$$

  *****  SOME WEATHER IN NEARBY STATES *****

CITY           SKY/WX    TMP DP  RH WIND       PRES   REMARKS
GLASGOW MT     CLOUDY    64  53  67 W3        29.94R HAZE
GREAT FALLS MT PTSUNNY   74  36  25 SW15      30.05R HAZE
CHEYENNE WY    PTSUNNY   66  49  54 NW15G22   30.27R
SCOTTSBLUFF NE SUNNY     67  53  61 W13       30.12R
OMAHA NE       CLOUDY    71  67  87 S13       29.82F
DES MOINES IA  LGT RAIN  64  60  87 SE17G24   29.91F
DAVENPORT IA   CLOUDY    64  59  83 SE9       30.10S
CHICAGO IL     CLOUDY    70  59  68 SW6       30.15R
EAU CLAIRE WI  CLOUDY    65  59  81 S8        30.06S
LA CROSSE WI   LGT RAIN  65  61  87 S3        30.08S
$$

  *****  SOME NATIONAL WEATHER *****

CITY           SKY/WX    TMP DP  RH WIND       PRES   REMARKS
LA GUARDIA NY  MOSUNNY   74  53  48 NW5       30.18S
RALEIGH NC     MOSUNNY   78  59  51 E12       30.22R
ATLANTA GA     CLOUDY    73  68  83 E14G20    30.18R
NEW ORLEANS LA MOSUNNY   83  66  56 NE8       30.02R
OKLAHOMA CITY  CLOUDY    73  64  73 S12       29.98S
ALBUQUERQUE NM PTSUNNY   71  56  58 CALM      30.24R
SALT LAKE CITY MOSUNNY   72  49  44 S12       30.20R
LOS ANGELES CA MOSUNNY   76  66  71 CALM      29.90R
BOISE ID       MOSUNNY   72  39  30 CALM      30.05R
SEATTLE WA     CLOUDY    62  56  80 S6        30.00S
$$

*** WEATHER ACROSS MANITOBA...SASKATCHEWAN AND ONTARIO ***
                ***ONTARIO***

CITY           SKY/WX    TMP DP  RH WIND       PRES   REMARKS
GERALDTON      CLOUDY    59  54  82 S6        29.94S
THUNDER BAY    CLOUDY    57  50  77 CALM      29.96R
SIOUX LOOKOUT  TSTM      63  63 100 SW2       29.89R
TORONTO        MOSUNNY   66  52  59 VRB2      30.22S
BIG TROUT LK   FOG       55  55 100 VRB2      29.84S VSB 1/4
PICKLE LAKE    CLOUDY    63  55  77 SW6       29.85S
DRYDEN         CLOUDY    64  63  94 S8        29.85F
KENORA         LGT RAIN  66  64  94 SW9       29.86R FOG
$$
                *** MANITOBA***

CITY           SKY/WX    TMP DP  RH WIND       PRES   REMARKS
BRANDON        PTSUNNY   68  63  83 CALM      29.82S
DAUPHIN        SUNNY     70  61  73 W8        29.80S
ISLAND LAKE    PTSUNNY   63  57  82 SE3       29.80S
PILOT MOUND      N/A     70  63  78 S9          N/A
THE PAS        MOSUNNY   68  59  73 SW9       29.76R
THOMPSON       PTSUNNY   59  55  88 VRB3      29.74S
WINNIPEG       PTSUNNY   68  63  83 NW7       29.82R
LYNN LAKE      SUNNY     63  54  72 MISG      29.68F
GILLAM         SUNNY     63  54  72 SW6       29.78S
$$
                ***SASKATCHEWAN***

CITY           SKY/WX    TMP DP  RH WIND       PRES   REMARKS
ESTEVAN        CLOUDY    66  59  77 W5        29.88R SMOKE
KINDERSLEY     PTSUNNY   59  55  88 S6        29.87R
LLOYDMINSTER   MOSUNNY   64  54  68 S5        29.83R
PRINCE ALBERT  CLOUDY    63  57  82 SE6       29.80F
REGINA         CLOUDY    66  61  82 VRB2      29.87S FOG
YORKTON        SUNNY     64  59  82 NW5       29.86R


USA.gov is the U.S. government's official web portal to all federal, state and local government web resources and services.